Location: Pinhey's Point
(45.4411°N, 75.9539°W)
Time: 09:08:58
(UTC-04:00)

Iridium 65 - Visible Passes

Search period start: 30 July 2014 00:00
Search period end: 09 August 2014 00:00
Orbit: 776 x 779 km, 86.4° (Epoch: 29 July)

Date Brightness Start Highest point End Pass type
(mag) Time Alt. Az. Time Alt. Az. Time Alt. Az.
30 Jul 5.7 01:24:12 58° W 01:24:29 59° W 01:29:39 10° N visible
30 Jul 7.8 23:10:55 10° ENE 23:11:10 10° ENE 23:11:24 10° ENE visible
31 Jul 5.4 00:50:47 78° ESE 00:50:55 79° E 00:56:09 10° N visible
31 Jul 7.6 02:31:16 13° W 02:32:19 14° WNW 02:35:02 10° NW visible
01 Aug 6.1 00:17:22 44° E 00:17:30 44° E 00:22:26 10° NNE visible
01 Aug 7.0 01:57:51 24° W 01:58:25 24° WNW 02:02:38 10° NNW visible
01 Aug 6.8 23:43:57 25° E 23:44:11 26° E 23:48:24 10° NNE visible
02 Aug 6.2 01:24:25 41° W 01:24:39 42° W 01:29:36 10° N visible
02 Aug 7.5 23:10:31 15° E 23:10:59 15° ENE 23:13:46 10° NE visible
03 Aug 5.5 00:50:59 74° W 00:51:01 74° W 00:56:15 10° N visible
04 Aug 5.6 00:17:33 63° E 00:17:33 63° E 00:22:40 10° N visible
04 Aug 7.4 01:58:01 17° W 01:58:43 18° WNW 02:02:10 10° NNW visible
04 Aug 6.4 23:44:06 35° E 23:44:07 35° E 23:48:50 10° NNE visible
05 Aug 6.8 01:24:34 30° W 01:24:52 30° WNW 01:29:26 10° NNW visible
05 Aug 7.1 23:10:39 21° E 23:10:51 21° E 23:14:38 10° NNE visible
06 Aug 5.9 00:51:07 52° W 00:51:09 52° W 00:56:15 10° N visible
06 Aug 7.6 22:37:12 11° E 22:37:43 12° ENE 22:39:23 10° NE visible
07 Aug 5.4 00:17:40 86° NNE 00:17:40 86° NNE 00:22:49 10° N visible
07 Aug 7.8 01:58:08 12° W 01:59:04 13° WNW 02:01:15 10° NW visible
07 Aug 5.9 23:44:12 50° E 23:44:12 50° E 23:49:08 10° NNE visible
08 Aug 7.2 01:24:40 22° W 01:25:08 22° WNW 01:29:07 10° NNW visible
08 Aug 6.6 23:10:44 28° E 23:10:46 28° E 23:15:10 10° NNE visible
